Location: Eitze
(52.9840°N, 9.6894°E)
Time: 00:10:10
(UTC+00:00)

SL-16 R/B - Pass Details

Date: 19 May 2025
Orbit: 841 x 844 km, 71.0° (Epoch: 22 June)

Event Time Altitude Azimuth Distance (km) Brightness Sun altitude
Rises 22:40:16 0° 326° (NNW) 3,415 6.6 -16.6°
Reaches altitude 10° 22:42:45 10° 324° (NW) 2,476 5.6 -16.6°
Maximum altitude 22:48:20 61° 245° (WSW) 953 2.3 -16.8°
Enters shadow 22:51:19 28° 175° (S) 1,548 3.0 -16.8°
